Kezdőlap
METAR-TAF:

METAR-TAF

Repülőterek :

Galápagos, Ecuador

földrajzi szélesség: 00-54S, földrajzi hosszúság: 089-36W, magasság: 6 m

Jelenlegi meteorológiai megfigyelések

A jelentés 53 perccel ezelõtt készült, 23:00 UTC
Déli szél 14 kt
Hőmérséklet 24°C
Páratartalom 83%
Légköri nyomás 1007 hPa
Látótávolság 10 km, vagy több
Kevés felhő 2000 lábon
Szakadozott felhőzet 7000 lábon

METAR: SEST 092300Z 17014KT 9999 FEW020 BKN070 24/21 Q1007 RMK A2975

Idő: 17:53 (23:53 UTC)


TAF: hiányzik

Meteorológiai megfigyelések és előrejelzések több, mint 4000 repülőtéren (METAR és TAF jelentéseket).

A térképen piros és sárga pontok jelzik az elérhető meteorológiai állomásokat.

Mozgassa az egeret a pont fölött, hogy megjelenjen az állomás neve.

Azután kattintson az időjárási megfigyelések és előrejelzések megtekintéséhez.

A térkép megváltoztatása: kattintson a fekete keresztel jelölt zöld gombra ráközelítéshez, a vonallal jelölt zöld gombra távolításhoz, vagy a zöld nyilakra a szomszédos térképek eléréséhez.


METAR-TAF: